WAT740 EGNR-EDHI

Flight info

Callsign WAT740
Flight time 1h 37m
Altitude 29000
Route TNT T420 AKUPA DCT WSN
Aircraft A3ST/H-SDFGHIRWY/LB1

Departure

Time 2026-05-05 12:54
Airport Hawarden Airport (EGNR)

Arrival

Time 2026-05-05 14:31
Airport Hamburg-Finkenwerder Airport (EDHI)
Time Latitude Longitude Altitude Speed Heading
2026-05-05 12:21 53.17726 -2.97275 35 ft 0 kts 132°
2026-05-05 12:43 53.17726 -2.97276 35 ft 1 kts 132°
2026-05-05 12:43 53.17736 -2.97293 35 ft 2 kts 132°
2026-05-05 12:44 53.17746 -2.97312 35 ft 2 kts 132°
2026-05-05 12:44 53.17756 -2.97330 34 ft 2 kts 132°
2026-05-05 12:44 53.17764 -2.97352 34 ft 2 kts 103°
2026-05-05 12:44 53.17764 -2.97376 34 ft 2 kts 77°
2026-05-05 12:45 53.17758 -2.97399 33 ft 2 kts 50°
2026-05-05 12:45 53.17747 -2.97415 33 ft 2 kts 38°
2026-05-05 12:45 53.17735 -2.97431 34 ft 2 kts 41°
2026-05-05 12:45 53.17728 -2.97442 34 ft 0 kts 40°
2026-05-05 12:46 53.17728 -2.97441 34 ft 0 kts 40°
2026-05-05 12:48 53.17738 -2.97429 33 ft 3 kts 40°
2026-05-05 12:48 53.17771 -2.97395 33 ft 6 kts
2026-05-05 12:49 53.17823 -2.97451 31 ft 12 kts 310°
2026-05-05 12:49 53.17881 -2.97561 30 ft 14 kts 304°
2026-05-05 12:49 53.17849 -2.97709 30 ft 16 kts 221°
2026-05-05 12:49 53.17763 -2.97843 34 ft 17 kts 224°
2026-05-05 12:50 53.17662 -2.97986 36 ft 20 kts 214°
2026-05-05 12:50 53.17551 -2.98142 40 ft 22 kts 221°
2026-05-05 12:50 53.17427 -2.98324 44 ft 24 kts 223°
2026-05-05 12:50 53.17296 -2.98508 50 ft 25 kts 222°
2026-05-05 12:51 53.17198 -2.98675 56 ft 12 kts 242°
2026-05-05 12:51 53.17165 -2.98754 60 ft 4 kts 218°
2026-05-05 12:51 53.17144 -2.98757 60 ft 3 kts 146°
2026-05-05 12:51 53.17152 -2.98718 58 ft 0 kts 39°
2026-05-05 12:53 53.17152 -2.98717 58 ft 0 kts 39°
2026-05-05 12:53 53.17189 -2.98664 56 ft 33 kts 41°
2026-05-05 12:54 53.18372 -2.96917 245 ft 174 kts 40°
2026-05-05 12:54 53.19189 -2.95588 1307 ft 163 kts 41°
2026-05-05 12:54 53.20120 -2.94518 2066 ft 172 kts 18°
2026-05-05 12:55 53.21341 -2.94538 2702 ft 194 kts 338°
2026-05-05 12:55 53.22591 -2.95751 3353 ft 224 kts 328°
2026-05-05 12:55 53.24089 -2.96733 3891 ft 240 kts 354°
2026-05-05 12:55 53.25746 -2.96382 4080 ft 250 kts 17°
2026-05-05 12:56 53.27410 -2.95389 4022 ft 252 kts 20°
2026-05-05 12:56 53.29023 -2.94283 3983 ft 252 kts 30°
2026-05-05 12:56 53.30162 -2.92088 3991 ft 258 kts 66°
2026-05-05 12:56 53.30542 -2.89141 4028 ft 261 kts 80°
2026-05-05 12:57 53.30767 -2.86111 4148 ft 269 kts 80°
2026-05-05 12:57 53.31015 -2.82987 5104 ft 275 kts 80°
2026-05-05 12:57 53.31270 -2.79898 6368 ft 270 kts 80°
2026-05-05 12:57 53.31528 -2.76834 7437 ft 272 kts 80°
2026-05-05 12:58 53.31793 -2.73698 8357 ft 278 kts 80°
2026-05-05 12:58 53.32066 -2.70466 9225 ft 284 kts 80°
2026-05-05 12:58 53.32339 -2.67201 10073 ft 289 kts 80°
2026-05-05 12:58 53.32620 -2.63884 10861 ft 295 kts 80°
2026-05-05 12:59 53.32916 -2.60394 11344 ft 311 kts 80°
2026-05-05 12:59 53.33228 -2.56691 11747 ft 329 kts 80°
2026-05-05 12:59 53.33545 -2.52887 12290 ft 341 kts 81°
2026-05-05 13:00 53.34206 -2.44913 13846 ft 349 kts 81°
2026-05-05 13:00 53.34539 -2.40903 14598 ft 353 kts 81°
2026-05-05 13:01 53.35563 -2.28477 16610 ft 367 kts 83°
2026-05-05 13:01 53.35545 -2.24215 17211 ft 372 kts 96°
2026-05-05 13:01 53.35160 -2.19932 17806 ft 376 kts 101°
2026-05-05 13:01 53.34687 -2.15652 18395 ft 381 kts 101°
2026-05-05 13:02 53.34204 -2.11249 19013 ft 384 kts 101°
2026-05-05 13:02 53.33736 -2.06834 19634 ft 388 kts 101°
2026-05-05 13:02 53.33275 -2.02372 20254 ft 391 kts 101°
2026-05-05 13:02 53.32819 -1.97939 20850 ft 393 kts 101°
2026-05-05 13:03 53.32352 -1.93418 21423 ft 396 kts 101°
2026-05-05 13:03 53.31885 -1.88915 21968 ft 399 kts 101°
2026-05-05 13:03 53.31403 -1.84298 22531 ft 403 kts 101°
2026-05-05 13:03 53.30922 -1.79721 23069 ft 406 kts 102°
2026-05-05 13:04 53.30435 -1.75097 23626 ft 408 kts 102°
2026-05-05 13:04 53.29941 -1.70415 24187 ft 411 kts 102°
2026-05-05 13:04 53.29436 -1.65681 24773 ft 413 kts 102°
2026-05-05 13:04 53.28925 -1.61022 25351 ft 413 kts 102°
2026-05-05 13:05 53.28402 -1.56294 25914 ft 413 kts 102°
2026-05-05 13:05 53.27894 -1.51635 26510 ft 412 kts 101°
2026-05-05 13:05 53.27386 -1.46928 27174 ft 410 kts 101°
2026-05-05 13:05 53.26883 -1.42264 27847 ft 407 kts 101°
2026-05-05 13:06 53.26391 -1.37714 28516 ft 403 kts 101°
2026-05-05 13:06 53.25890 -1.33091 28972 ft 403 kts 102°
2026-05-05 13:06 53.24889 -1.23944 28954 ft 400 kts 102°
2026-05-05 13:07 53.23886 -1.14823 28967 ft 400 kts 102°
2026-05-05 13:07 53.22879 -1.05769 28966 ft 400 kts 102°
2026-05-05 13:08 53.21863 -0.96674 28971 ft 400 kts 102°
2026-05-05 13:08 53.20840 -0.87606 28968 ft 399 kts 102°
2026-05-05 13:09 53.19770 -0.78492 28969 ft 399 kts 102°
2026-05-05 13:09 53.18725 -0.69442 28977 ft 401 kts 102°
2026-05-05 13:10 53.17677 -0.60343 28972 ft 402 kts 102°
2026-05-05 13:10 53.16623 -0.51250 28978 ft 402 kts 102°
2026-05-05 13:11 53.15556 -0.42118 28979 ft 403 kts 102°
2026-05-05 13:11 53.14478 -0.32950 28979 ft 403 kts 103°
2026-05-05 13:12 53.13399 -0.23836 28977 ft 403 kts 103°
2026-05-05 13:12 53.12309 -0.14690 28975 ft 404 kts 103°
2026-05-05 13:13 53.11208 -0.05514 28965 ft 405 kts 103°
2026-05-05 13:13 53.10096 0.03654 28965 ft 407 kts 103°
2026-05-05 13:14 53.08982 0.12807 28968 ft 406 kts 103°
2026-05-05 13:14 53.07858 0.21971 28960 ft 406 kts 103°
2026-05-05 13:15 53.06717 0.31201 28979 ft 406 kts 103°
2026-05-05 13:15 53.05586 0.40339 28952 ft 405 kts 103°
2026-05-05 13:16 53.04442 0.49472 28963 ft 405 kts 103°
2026-05-05 13:16 53.03289 0.58628 28962 ft 405 kts 104°
2026-05-05 13:17 53.02135 0.67715 28960 ft 406 kts 104°
2026-05-05 13:17 53.00970 0.76850 28954 ft 406 kts 104°
2026-05-05 13:18 52.99789 0.86051 28955 ft 407 kts 104°
2026-05-05 13:18 52.98611 0.95160 28955 ft 406 kts 104°
2026-05-05 13:19 52.97416 1.04304 28947 ft 405 kts 104°
2026-05-05 13:19 52.96323 1.13478 28945 ft 405 kts 103°
2026-05-05 13:20 52.95272 1.22634 28947 ft 406 kts 103°
2026-05-05 13:20 52.94206 1.31822 28949 ft 407 kts 103°
2026-05-05 13:21 52.93131 1.41012 28945 ft 406 kts 103°
2026-05-05 13:21 52.92057 1.50156 28957 ft 406 kts 103°
2026-05-05 13:22 52.90968 1.59340 28952 ft 407 kts 103°
2026-05-05 13:22 52.89868 1.68545 28944 ft 407 kts 104°
2026-05-05 13:23 52.88766 1.77700 28955 ft 406 kts 104°
2026-05-05 13:23 52.87658 1.86873 28953 ft 406 kts 104°
2026-05-05 13:24 52.86533 1.96091 28960 ft 415 kts 104°
2026-05-05 13:24 52.85385 2.05448 28957 ft 415 kts 104°
2026-05-05 13:25 52.84222 2.14853 28959 ft 417 kts 104°
2026-05-05 13:25 52.83166 2.24207 28957 ft 416 kts 102°
2026-05-05 13:26 52.82244 2.33705 28960 ft 417 kts 102°
2026-05-05 13:26 52.81300 2.43152 28959 ft 417 kts 102°
2026-05-05 13:27 52.80345 2.52570 28958 ft 418 kts 102°
2026-05-05 13:27 52.79375 2.62036 28959 ft 418 kts 102°
2026-05-05 13:28 52.78401 2.71465 28952 ft 419 kts 103°
2026-05-05 13:28 52.77422 2.80877 28951 ft 417 kts 103°
2026-05-05 13:29 52.76432 2.90312 28948 ft 416 kts 103°
2026-05-05 13:29 52.75433 2.99751 28952 ft 417 kts 103°
2026-05-05 13:30 52.74430 3.09171 28949 ft 418 kts 103°
2026-05-05 13:30 52.73425 3.18555 28946 ft 418 kts 103°
2026-05-05 13:31 52.72410 3.27932 28951 ft 418 kts 103°
2026-05-05 13:31 52.71378 3.37372 28940 ft 417 kts 103°
2026-05-05 13:32 52.70352 3.46697 28945 ft 417 kts 103°
2026-05-05 13:32 52.69310 3.56098 28929 ft 417 kts 103°
2026-05-05 13:33 52.68267 3.65470 28935 ft 417 kts 103°
2026-05-05 13:33 52.67210 3.74876 28934 ft 418 kts 103°
2026-05-05 13:34 52.66146 3.84248 28932 ft 417 kts 104°
2026-05-05 13:34 52.65078 3.93646 28932 ft 418 kts 104°
2026-05-05 13:35 52.63995 4.03035 28931 ft 418 kts 104°
2026-05-05 13:35 52.62908 4.12405 28935 ft 418 kts 104°
2026-05-05 13:36 52.61822 4.21726 28933 ft 417 kts 104°
2026-05-05 13:36 52.60716 4.31111 28927 ft 417 kts 104°
2026-05-05 13:37 52.59612 4.40437 28930 ft 417 kts 104°
2026-05-05 13:37 52.58505 4.49734 28928 ft 417 kts 104°
2026-05-05 13:38 52.57375 4.59147 28921 ft 417 kts 104°
2026-05-05 13:38 52.56251 4.68477 28918 ft 416 kts 104°
2026-05-05 13:39 52.55114 4.77803 28906 ft 417 kts 105°
2026-05-05 13:39 52.54681 4.82484 28883 ft 421 kts 94°
2026-05-05 13:39 52.55192 4.87258 28906 ft 428 kts 70°
2026-05-05 13:40 52.56674 4.91469 28954 ft 432 kts 54°
2026-05-05 13:40 52.58575 4.95299 28925 ft 433 kts 50°
2026-05-05 13:40 52.62445 5.02878 28900 ft 432 kts 52°
2026-05-05 13:41 52.66161 5.10623 28900 ft 431 kts 52°
2026-05-05 13:41 52.69844 5.18380 28903 ft 433 kts 52°
2026-05-05 13:42 52.73539 5.26260 28907 ft 433 kts 56°
2026-05-05 13:42 52.74930 5.30624 28907 ft 430 kts 69°
2026-05-05 13:42 52.75909 5.35271 28920 ft 431 kts 73°
2026-05-05 13:43 52.77763 5.44654 28914 ft 431 kts 72°
2026-05-05 13:43 52.79748 5.53922 28907 ft 427 kts 72°
2026-05-05 13:44 52.81741 5.63162 28914 ft 427 kts 72°
2026-05-05 13:44 52.83701 5.72338 28915 ft 426 kts 73°
2026-05-05 13:45 52.85673 5.81625 28915 ft 427 kts 72°
2026-05-05 13:45 52.87633 5.90886 28924 ft 427 kts 72°
2026-05-05 13:46 52.89583 6.00152 28919 ft 429 kts 73°
2026-05-05 13:46 52.91530 6.09441 28912 ft 429 kts 72°
2026-05-05 13:47 52.93481 6.18811 28901 ft 430 kts 72°
2026-05-05 13:47 52.95412 6.28076 28902 ft 430 kts 72°
2026-05-05 13:48 52.97354 6.37479 28902 ft 430 kts 72°
2026-05-05 13:48 52.99284 6.46851 28904 ft 430 kts 72°
2026-05-05 13:49 53.01199 6.56200 28912 ft 431 kts 72°
2026-05-05 13:49 53.03128 6.65665 28915 ft 430 kts 73°
2026-05-05 13:50 53.04064 6.70265 28666 ft 422 kts 73°
2026-05-05 13:50 53.04997 6.74869 28104 ft 420 kts 73°
2026-05-05 13:50 53.05921 6.79461 27540 ft 419 kts 73°
2026-05-05 13:50 53.06838 6.84018 27012 ft 422 kts 73°
2026-05-05 13:51 53.07780 6.88713 26487 ft 426 kts 73°
2026-05-05 13:51 53.08714 6.93361 25979 ft 427 kts 73°
2026-05-05 13:51 53.09652 6.98037 26021 ft 422 kts 72°
2026-05-05 13:51 53.10576 7.02661 26169 ft 431 kts 73°
2026-05-05 13:52 53.11524 7.07414 26414 ft 438 kts 72°
2026-05-05 13:52 53.12492 7.12273 26804 ft 439 kts 72°
2026-05-05 13:52 53.13405 7.17070 26916 ft 438 kts 76°
2026-05-05 13:52 53.14037 7.21990 26897 ft 435 kts 81°
2026-05-05 13:53 53.14542 7.26914 26894 ft 432 kts 82°
2026-05-05 13:53 53.15073 7.31906 26893 ft 433 kts 81°
2026-05-05 13:53 53.15634 7.36811 26895 ft 433 kts 80°
2026-05-05 13:53 53.16224 7.41784 26357 ft 443 kts 80°
2026-05-05 13:54 53.16817 7.46770 25350 ft 442 kts 80°
2026-05-05 13:54 53.17405 7.51747 23833 ft 440 kts 79°
2026-05-05 13:54 53.17977 7.56622 23169 ft 418 kts 79°
2026-05-05 13:54 53.18519 7.61238 22488 ft 401 kts 79°
2026-05-05 13:55 53.19044 7.65738 21829 ft 387 kts 80°
2026-05-05 13:55 53.19553 7.70108 21696 ft 376 kts 80°
2026-05-05 13:55 53.20054 7.74426 21475 ft 388 kts 80°
2026-05-05 13:55 53.20567 7.78866 20203 ft 396 kts 80°
2026-05-05 13:56 53.21078 7.83296 19626 ft 376 kts 80°
2026-05-05 13:56 53.21559 7.87480 19181 ft 364 kts 80°
2026-05-05 13:56 53.22023 7.91533 19421 ft 351 kts 80°
2026-05-05 13:56 53.22475 7.95491 18980 ft 350 kts 80°
2026-05-05 13:57 53.22924 7.99458 18442 ft 349 kts 80°
2026-05-05 13:57 53.23375 8.03434 18063 ft 345 kts 80°
2026-05-05 13:57 53.23817 8.07363 17672 ft 341 kts 80°
2026-05-05 13:57 53.24244 8.11183 17279 ft 339 kts 80°
2026-05-05 13:58 53.24676 8.15054 16838 ft 337 kts 79°
2026-05-05 13:58 53.25104 8.18875 16421 ft 335 kts 79°
2026-05-05 13:58 53.25532 8.22706 16015 ft 333 kts 79°
2026-05-05 13:58 53.25952 8.26476 15623 ft 330 kts 79°
2026-05-05 13:59 53.26776 8.33913 14814 ft 325 kts 79°
2026-05-05 13:59 53.27183 8.37611 14421 ft 322 kts 79°
2026-05-05 14:00 53.27985 8.44928 13615 ft 318 kts 79°
2026-05-05 14:00 53.28376 8.48506 13211 ft 316 kts 79°
2026-05-05 14:00 53.28769 8.52101 12814 ft 313 kts 79°
2026-05-05 14:00 53.29158 8.55667 12419 ft 311 kts 79°
2026-05-05 14:01 53.29542 8.59217 12019 ft 308 kts 79°
2026-05-05 14:01 53.29918 8.62693 11624 ft 306 kts 79°
2026-05-05 14:01 53.30300 8.66247 11217 ft 304 kts 80°
2026-05-05 14:01 53.30668 8.69686 10799 ft 303 kts 80°
2026-05-05 14:02 53.31036 8.73133 10381 ft 301 kts 80°
2026-05-05 14:02 53.31401 8.76553 9971 ft 299 kts 80°
2026-05-05 14:02 53.31761 8.79932 9866 ft 288 kts 80°
2026-05-05 14:02 53.32109 8.83202 9892 ft 290 kts 80°
2026-05-05 14:03 53.32470 8.86599 9903 ft 297 kts 80°
2026-05-05 14:03 53.32830 8.90017 9907 ft 298 kts 80°
2026-05-05 14:03 53.33187 8.93415 9898 ft 299 kts 80°
2026-05-05 14:03 53.33544 8.96818 9895 ft 298 kts 80°
2026-05-05 14:04 53.33899 9.00218 9646 ft 291 kts 80°
2026-05-05 14:04 53.34243 9.03533 9252 ft 289 kts 80°
2026-05-05 14:04 53.34581 9.06788 8914 ft 283 kts 79°
2026-05-05 14:04 53.34918 9.10039 8562 ft 280 kts 79°
2026-05-05 14:05 53.35244 9.13196 8208 ft 277 kts 79°
2026-05-05 14:05 53.35572 9.16376 7823 ft 276 kts 79°
2026-05-05 14:05 53.35899 9.19548 7458 ft 273 kts 79°
2026-05-05 14:05 53.36218 9.22662 7088 ft 271 kts 79°
2026-05-05 14:06 53.36530 9.25723 6724 ft 270 kts 79°
2026-05-05 14:06 53.36845 9.28815 6361 ft 268 kts 79°
2026-05-05 14:06 53.37155 9.31866 5998 ft 265 kts 79°
2026-05-05 14:06 53.37457 9.34849 5554 ft 258 kts 79°
2026-05-05 14:07 53.37749 9.37751 5140 ft 246 kts 78°
2026-05-05 14:07 53.38025 9.40494 4851 ft 231 kts 78°
2026-05-05 14:07 53.38285 9.43064 4638 ft 214 kts 78°
2026-05-05 14:07 53.38519 9.45402 4395 ft 200 kts 78°
2026-05-05 14:08 53.38750 9.47682 3960 ft 202 kts 78°
2026-05-05 14:08 53.38982 9.50004 3539 ft 202 kts 78°
2026-05-05 14:08 53.39198 9.52306 3159 ft 199 kts 77°
2026-05-05 14:08 53.39775 9.54289 2931 ft 185 kts 53°
2026-05-05 14:09 53.40490 9.56035 2915 ft 177 kts 54°
2026-05-05 14:09 53.41221 9.57648 2971 ft 174 kts 49°
2026-05-05 14:09 53.42000 9.59258 2958 ft 175 kts 50°
2026-05-05 14:09 53.42756 9.60827 2941 ft 174 kts 50°
2026-05-05 14:10 53.43511 9.62404 2937 ft 174 kts 50°
2026-05-05 14:10 53.44280 9.64015 2739 ft 176 kts 50°
2026-05-05 14:10 53.45031 9.65597 2495 ft 171 kts 51°
2026-05-05 14:10 53.45758 9.67167 2279 ft 170 kts 51°
2026-05-05 14:11 53.46475 9.68694 2028 ft 160 kts 51°
2026-05-05 14:11 53.47133 9.70078 1840 ft 151 kts 51°
2026-05-05 14:11 53.47785 9.71446 1624 ft 146 kts 51°
2026-05-05 14:11 53.48400 9.72736 1406 ft 139 kts 51°
2026-05-05 14:12 53.48999 9.73988 1231 ft 137 kts 52°
2026-05-05 14:12 53.49590 9.75238 1054 ft 136 kts 53°
2026-05-05 14:12 53.50182 9.76492 880 ft 136 kts 51°
2026-05-05 14:12 53.50771 9.77730 707 ft 136 kts 52°
2026-05-05 14:13 53.51371 9.78993 510 ft 138 kts 53°
2026-05-05 14:13 53.51959 9.80238 328 ft 138 kts 53°
2026-05-05 14:13 53.52566 9.81517 147 ft 138 kts 53°
2026-05-05 14:13 53.53155 9.82748 34 ft 129 kts 51°
2026-05-05 14:14 53.53699 9.83901 35 ft 135 kts 54°
2026-05-05 14:14 53.54283 9.85177 507 ft 136 kts 52°
2026-05-05 14:14 53.54850 9.86385 981 ft 132 kts 53°
2026-05-05 14:14 53.55434 9.87643 1227 ft 144 kts 51°
2026-05-05 14:15 53.56073 9.88964 1730 ft 145 kts 50°
2026-05-05 14:15 53.56688 9.90188 2413 ft 132 kts 53°
2026-05-05 14:15 53.57196 9.91431 2884 ft 133 kts 56°
2026-05-05 14:15 53.57393 9.93033 3179 ft 156 kts 103°
2026-05-05 14:16 53.56751 9.94646 3562 ft 175 kts 126°
2026-05-05 14:16 53.55954 9.96380 3886 ft 199 kts 124°
2026-05-05 14:16 53.55110 9.98275 3944 ft 206 kts 124°
2026-05-05 14:16 53.54245 10.00228 3953 ft 206 kts 124°
2026-05-05 14:17 53.53378 10.02187 3969 ft 212 kts 124°
2026-05-05 14:17 53.52501 10.04178 3970 ft 213 kts 124°
2026-05-05 14:17 53.51616 10.06187 3958 ft 214 kts 124°
2026-05-05 14:17 53.50717 10.08223 3953 ft 214 kts 124°
2026-05-05 14:18 53.49838 10.10208 3952 ft 214 kts 124°
2026-05-05 14:18 53.48945 10.12221 3951 ft 214 kts 124°
2026-05-05 14:18 53.48046 10.14250 3949 ft 214 kts 124°
2026-05-05 14:18 53.47157 10.16234 3947 ft 214 kts 129°
2026-05-05 14:19 53.45891 10.17582 3982 ft 219 kts 167°
2026-05-05 14:19 53.44391 10.17440 4013 ft 222 kts 202°
2026-05-05 14:19 53.43202 10.15880 4012 ft 220 kts 238°
2026-05-05 14:19 53.42444 10.13631 3991 ft 220 kts 244°
2026-05-05 14:20 53.41738 10.11344 3954 ft 219 kts 244°
2026-05-05 14:20 53.41042 10.09086 3932 ft 219 kts 244°
2026-05-05 14:20 53.40338 10.06802 3935 ft 219 kts 244°
2026-05-05 14:20 53.39642 10.04538 3944 ft 219 kts 244°
2026-05-05 14:21 53.38950 10.02276 3956 ft 218 kts 244°
2026-05-05 14:21 53.38248 9.99976 3961 ft 219 kts 244°
2026-05-05 14:21 53.37555 9.97712 3943 ft 219 kts 244°
2026-05-05 14:21 53.36856 9.95436 3952 ft 219 kts 244°
2026-05-05 14:22 53.36161 9.93175 3957 ft 219 kts 244°
2026-05-05 14:22 53.35458 9.90889 3950 ft 219 kts 244°
2026-05-05 14:22 53.34829 9.88625 4044 ft 214 kts 256°
2026-05-05 14:22 53.34751 9.86144 4020 ft 214 kts 274°
2026-05-05 14:23 53.34797 9.83645 3982 ft 214 kts 274°
2026-05-05 14:23 53.34845 9.81184 3963 ft 214 kts 274°
2026-05-05 14:23 53.34894 9.78670 3963 ft 214 kts 274°
2026-05-05 14:23 53.34944 9.76195 3963 ft 214 kts 274°
2026-05-05 14:24 53.34993 9.73697 3962 ft 214 kts 274°
2026-05-05 14:24 53.35045 9.71195 3956 ft 214 kts 274°
2026-05-05 14:24 53.35092 9.68714 3957 ft 215 kts 274°
2026-05-05 14:24 53.35141 9.66200 3955 ft 214 kts 274°
2026-05-05 14:25 53.35186 9.63761 3977 ft 207 kts 274°
2026-05-05 14:25 53.35296 9.61370 3933 ft 204 kts 288°
2026-05-05 14:25 53.36063 9.59520 3897 ft 189 kts 327°
2026-05-05 14:25 53.37269 9.58925 3463 ft 183 kts
2026-05-05 14:26 53.38454 9.59590 3013 ft 181 kts 25°
2026-05-05 14:26 53.39587 9.60398 2907 ft 169 kts 24°
2026-05-05 14:26 53.40628 9.61137 2902 ft 159 kts 24°
2026-05-05 14:26 53.41637 9.61855 2916 ft 156 kts 24°
2026-05-05 14:27 53.42620 9.62580 2933 ft 154 kts 27°
2026-05-05 14:27 53.43574 9.63463 2862 ft 156 kts 37°
2026-05-05 14:27 53.44417 9.64592 2659 ft 154 kts 40°
2026-05-05 14:27 53.45125 9.65884 2454 ft 151 kts 49°
2026-05-05 14:28 53.45801 9.67249 2263 ft 151 kts 51°
2026-05-05 14:28 53.46451 9.68635 2091 ft 150 kts 51°
2026-05-05 14:28 53.47080 9.69963 1849 ft 139 kts 51°
2026-05-05 14:28 53.47662 9.71189 1649 ft 133 kts 51°
2026-05-05 14:29 53.48243 9.72406 1472 ft 132 kts 51°
2026-05-05 14:29 53.48822 9.73618 1298 ft 133 kts 51°
2026-05-05 14:29 53.49394 9.74831 1124 ft 132 kts 50°
2026-05-05 14:29 53.49964 9.76023 952 ft 132 kts 51°
2026-05-05 14:30 53.50540 9.77237 775 ft 133 kts 52°
2026-05-05 14:30 53.51114 9.78451 597 ft 134 kts 53°
2026-05-05 14:30 53.51691 9.79676 416 ft 134 kts 52°
2026-05-05 14:30 53.52279 9.80897 235 ft 134 kts 51°
2026-05-05 14:31 53.52869 9.82138 78 ft 136 kts 52°
2026-05-05 14:31 53.53440 9.83337 24 ft 122 kts 53°
2026-05-05 14:31 53.53870 9.84264 28 ft 83 kts 52°
2026-05-05 14:31 53.54129 9.84823 24 ft 28 kts 53°
2026-05-05 14:32 53.54235 9.85060 22 ft 13 kts 37°
2026-05-05 14:32 53.54257 9.85013 22 ft 6 kts 195°
2026-05-05 14:32 53.54203 9.84960 23 ft 13 kts 222°
2026-05-05 14:32 53.54129 9.84808 24 ft 19 kts 232°
2026-05-05 14:33 53.54020 9.84588 26 ft 29 kts 230°
2026-05-05 14:33 53.53868 9.84267 27 ft 39 kts 231°
2026-05-05 14:33 53.53694 9.83901 30 ft 39 kts 232°
2026-05-05 14:33 53.53540 9.83572 25 ft 33 kts 231°
2026-05-05 14:34 53.53422 9.83327 24 ft 22 kts 233°
2026-05-05 14:34 53.53345 9.83151 20 ft 12 kts 249°
2026-05-05 14:34 53.53375 9.83039 21 ft 10 kts 320°
2026-05-05 14:34 53.53426 9.82966 20 ft 9 kts 321°
2026-05-05 14:35 53.53477 9.82899 18 ft 9 kts 322°
2026-05-05 14:35 53.53529 9.82833 17 ft 9 kts 325°
2026-05-05 14:35 53.53532 9.82829 17 ft 0 kts 325°
2026-05-05 14:37 53.53540 9.82822 17 ft 4 kts 331°
2026-05-05 14:38 53.53570 9.82815 17 ft 4 kts 10°
2026-05-05 14:38 53.53596 9.82841 17 ft 4 kts 48°
2026-05-05 14:38 53.53615 9.82882 18 ft 2 kts 52°
2026-05-05 14:38 53.53618 9.82888 18 ft 0 kts 52°